Weather History for KLAF - April, 2013

Change the Weather History Date:

Monday, April 29, 2013

  Actual Average Record
Temperature  
Mean Temperature 62 °F 56 °F  
Max Temperature 70 °F 68 °F 88 °F (1987)
Min Temperature 53 °F 45 °F 27 °F (1977)
Degree Days  
Heating Degree Days 3 9  
Month to date heating degree days 454 397  
Since 1 July heating degree days 5757 5482  
Cooling Degree Days 0 1  
Month to date cooling degree days 1 11  
Year to date cooling degree days 1 12  
Growing Degree Days 11 (Base 50)    
Moisture  
Dew Point 52 °F    
Average Humidity 72    
Maximum Humidity 93    
Minimum Humidity 51    
Precipitation  
Precipitation 0.00 in 0.13 in 1.23 in (1963)
Month to date precipitation 8.35 3.41  
Year to date precipitation 15.55 9.70  
Sea Level Pressure  
Sea Level Pressure 29.91 in    
Wind  
Wind Speed 6 mph (SW)    
Max Wind Speed 14 mph    
Max Gust Speed 20 mph    
Visibility 10 miles    
Events      
T = Trace of Precipitation, MM = Missing Value Source: NWS Daily Summary

Daily Weather History Graph

Daily Weather History Graph

Search for Another Location

Airport or City:

Trip Planner

Search our weather history database for the weather conditions in past years. The results will help you decide how hot, cold, wet, or windy it might be!

Date:

Astronomy

Apr. 29, 2013 Rise Set
Actual Time 6:49 AM EDT 8:41 PM EDT
Civil Twilight 6:19 AM EDT 9:10 PM EDT
Nautical Twilight 5:44 AM EDT 9:46 PM EDT
Astronomical Twilight 5:05 AM EDT 10:25 PM EDT
Moon 12:10 AM EDT (4/29) 10:09 AM EDT (4/29)
Length of Visible Light 14h 51m
Length of Day
13h 52m
Waning Gibbous, 80% of the Moon is Illuminated
Apr 29
Waning Gibbous
May 2
Last Quarter
May 9
New
May 18
First Quarter
May 25
Full

Hourly Weather History & Observations

Time (EDT) Temp. Dew Point Humidity Pressure Visibility Wind Dir Wind Speed Gust Speed Precip Events Conditions
12:54 AM 55.0 °F 54.0 °F 96% 29.89 in 9.0 mi West 4.6 mph - N/A   Overcast
1:54 AM 55.0 °F 53.1 °F 93% 29.90 in 9.0 mi SW 3.5 mph - N/A   Overcast
2:54 AM 55.0 °F 53.1 °F 93% 29.89 in 9.0 mi WSW 3.5 mph - N/A   Overcast
3:54 AM 55.0 °F 53.1 °F 93% 29.90 in 8.0 mi WSW 3.5 mph - N/A   Overcast
4:29 AM 55.4 °F 53.6 °F 94% 29.90 in 8.0 mi West 3.5 mph - N/A   Overcast
4:54 AM 55.0 °F 53.1 °F 93% 29.91 in 8.0 mi WSW 4.6 mph - N/A   Overcast
5:18 AM 55.4 °F 51.8 °F 88% 29.92 in 8.0 mi West 5.8 mph - N/A   Overcast
5:54 AM 54.0 °F 51.1 °F 90% 29.93 in 8.0 mi West 4.6 mph - N/A   Overcast
6:54 AM 53.1 °F 50.0 °F 89% 29.95 in 9.0 mi West 6.9 mph - N/A   Overcast
7:54 AM 53.1 °F 50.0 °F 89% 29.95 in 10.0 mi West 3.5 mph - N/A   Overcast
8:54 AM 53.1 °F 50.0 °F 89% 29.97 in 10.0 mi SW 4.6 mph - N/A   Overcast
9:54 AM 55.0 °F 51.1 °F 86% 29.98 in 10.0 mi WSW 3.5 mph - N/A   Overcast
10:54 AM 57.0 °F 51.1 °F 81% 29.97 in 10.0 mi Variable 4.6 mph - N/A   Overcast
11:54 AM 61.0 °F 53.1 °F 75% 29.96 in 10.0 mi SSW 5.8 mph - N/A   Partly Cloudy
12:54 PM 64.0 °F 54.0 °F 70% 29.95 in 10.0 mi South 5.8 mph - N/A   Partly Cloudy
1:54 PM 64.9 °F 52.0 °F 63% 29.93 in 10.0 mi South 6.9 mph - N/A   Mostly Cloudy
2:54 PM 66.9 °F 53.1 °F 61% 29.92 in 10.0 mi South 10.4 mph 16.1 mph N/A   Mostly Cloudy
3:54 PM 68.0 °F 52.0 °F 56% 29.90 in 10.0 mi SSW 6.9 mph 16.1 mph N/A   Partly Cloudy
4:54 PM 69.1 °F 51.1 °F 53% 29.88 in 10.0 mi South 11.5 mph - N/A   Partly Cloudy
5:54 PM 69.1 °F 50.0 °F 51% 29.87 in 10.0 mi South 10.4 mph - N/A   Clear
6:54 PM 68.0 °F 50.0 °F 52% 29.87 in 10.0 mi Variable 6.9 mph 16.1 mph N/A   Clear
7:54 PM 66.9 °F 50.0 °F 54% 29.86 in 10.0 mi South 8.1 mph - N/A   Clear
8:54 PM 64.0 °F 51.1 °F 63% 29.86 in 10.0 mi South 4.6 mph - N/A   Clear
9:54 PM 61.0 °F 52.0 °F 72% 29.88 in 10.0 mi SSE 3.5 mph - N/A   Clear
10:54 PM 57.9 °F 52.0 °F 81% 29.88 in 10.0 mi SSE 5.8 mph - N/A   Clear
11:54 PM 57.0 °F 51.1 °F 81% 29.89 in 10.0 mi SE 3.5 mph - N/A   Clear